World > North America > United States > Ohio

Vincent, Ohio Regional Weather

Lat: 39.38N, Lon: 81.67W
Wx Zone: OHZ076Web Search
Vincent Weather Warning NWS WEATHER ALERT FOR THE VINCENT, OH AREA - Issued: 210 PM EDT Fri May 7 2021 Vincent Weather Warning  

Ads allow us to feed your daily addiction for the world's greatest weather information. We're determined to offer quality sponsors, in the least annoying way possible.

Feedback


°F Click to change Vincent hourly weather to Imperial units.Click to change Vincent hourly weather to Metric units. °C
Vincent Weather Map
UTC Time: 5/8/2021, 01:44
Your Time:

Vincent, OH Regional Weather

Expires:202105080200;;761614
ASUS41 KCLE 080112
RWRCLE
OHIO REGIONAL WEATHER ROUNDUP
NATIONAL WEATHER SERVICE WILMINGTON, OH
900 PM EDT FRI MAY 07 2021

NOTE: "FAIR" INDICATES FEW OR NO CLOUDS BELOW 12,000 FEET WITH NO
SIGNIFICANT WEATHER AND/OR OBSTRUCTIONS TO VISIBILITY.


OHZ036-037-039>041-045>050-054>059-063>069-073>076-082>088-080200-
  CENTRAL AND SOUTHEAST OHIO
  
CITY           SKY/WX    TMP DP  RH WIND       PRES   REMARKS
COLUMBUS       LGT RAIN  47  45  93 S5        29.93S                  
OSU AIRPORT    RAIN      48  45  89 S7        29.92S FOG              
BOLTON FIELD   LGT RAIN  47  45  93 SE3       29.94R                  
RICKENBACK AFB RAIN      47  45  94 S6        29.94R                  
NEWARK         CLOUDY    48  44  86 S3        29.91F                  
MARION         CLOUDY    48  42  80 SE3       29.91S                  
LANCASTER      LGT RAIN  48  44  86 CALM      29.93F                  
ZANESVILLE     CLOUDY    50  40  68 W8        29.92S                  
NEW PHILLY     CLOUDY    50  41  71 N3        29.91F                  
$$
  

SKY/WX - Weather  TMP - Temperature  DP - Dew Point  RH - Relative Humidity
WIND - Wind Direction/Speed PRES - Barometric Pressure VSB - Visibility
WCI - Wind Chill Index E13G22 Wind - East Wind 13 mph/Gusts of 22 mph